Meath Environmental Platform

Observations for Trim Market St

Time AQI Temp °C Hum % Pres Pa CO μg/m³ H₂S μg/m³ NO μg/m³ NO₂ μg/m³ O₃ μg/m³ SO₂ μg/m³ PM1 μg/m³ PM2.5 μg/m³ PM10 μg/m³
Monday 24 August 2026
12:46 2 38.2 23 66,786 0 0 1.17 39.02 120.8 0 2.14 6.92 7.61
12:41 2 38.3 24 66,748 0 0 1.26 29.8 116.27 0.47 1.43 5.79 6.37
12:35 2 38 24 66,754 0 0 1.31 32.71 109.64 0 1.43 5.78 6.36
12:34 1 38.1 24 66,754 0 0 1.32 41.65 120.17 0 2.14 6.33 6.97
12:33 1 38.1 24 66,756 0 0 1.33 31.59 136.11 0.32 2.14 6.89 7.52
12:32 1 38.1 24 66,758 0 0 1.33 31.6 111.86 0 1.43 6.33 6.62
12:31 1 38.1 24 66,758 0 0 1.26 35.48 123.38 0.06 2.14 5.78 6.36
12:30 1 38.1 24 66,737 0 0 1.21 37.02 125.31 0 1.43 6.33 7.52
12:29 1 38 24 66,735 0 0 1.27 29.29 115.61 0 2.14 5.78 6.36
12:28 1 38 24 66,731 0 0 1.25 34.41 134.76 0 1.43 6.32 6.96
12:27 1 38 24 66,731 0 0 1.3 28.27 100.43 0 1.43 5.78 7.52
12:26 1 38 24 66,724 0 0 1.36 36.47 114.6 0 2.85 7.44 7.52
12:25 1 38 24 66,714 0 0 1.37 33.78 122.17 0 2.14 7.43 8.42
12:24 1 37.9 24 66,737 0 0 1.38 36.22 120.65 0 1.43 6.32 6.95
12:23 1 37.9 24 66,739 0 0 1.43 35.66 125.05 0 2.14 6.87 7.52
12:22 1 37.9 24 66,741 0 0 1.34 31.17 114.97 0 2.14 6.32 6.96
12:20 1 37.9 24 66,739 0 0 1.27 29.36 128.89 0.2 1.43 6.31 6.95
12:19 1 37.8 24 66,737 0 0 1.19 35.97 121.5 0 2.85 6.87 7.55
12:17 1 37.8 24 66,724 0 0 1.23 35.28 116.77 0 2.14 6.31 6.95
12:12 1 37.4 25 66,698 0 0 1.31 36.2 122.22 0 2.14 5.19 5.71